Showing default

FLOCK 4BE 27, 60513

Orbit data source: Space-Track

FLOCK 4BE 27, 60513 is a payload satellite owned by Planet (US) in SSO that was launched on Fri, 16 Aug 2024 UTC via an FALCON 9 launch vehicle from the Air Force Western Test Range (AFWTR). Payload-class satellites include a variety of spacecraft equipped with specific instruments for various scientific and technological missions. These include communications satellites like Starlink; space stations such as the ISS; scientific satellites like the Hubble; Earth observation satellites from companies like Planet Labs, Umbra, and HawkEye 360; GPS; miniature CubeSats for education and research; and military/defense satellites.

Loading next visibility...
Identifier
60513, 2024-149AX
Orbit
SSO
Country
Flag of USUS
Related business
Manufacturer
Planet
Mission
Partially operational Commercial Imaging
Bus & Motor
CUBESAT 3U, Unknown motor
Mass
5.7 kg wet, 5.7 kg dry
Launch date (UTC)
2024-08-16 (2 years ago)
Launch vehicle
FALCON 9
Launch site
Air Force Western Test Range (AFWTR)
Object type
Payload
Rocket body
Debris
Shape & HBR
Box + 2 Pan, 1.0 m
Radar Cross Section
0.072 m², Medium (>0.1 m² and < 1m²)

Expand to show TLE details & history
Last TLE update: 1 day ago

TLE from 1 day ago
0 FLOCK 4BE 27
1 60513U 24149AX  26173.67215797  .00007027  00000-0  21249-3 0  9995
2 60513  97.3821 255.5261 0002311 284.1341  75.9646 15.34526522102985
Epoch: 2026-06-22T16:07Z
TLE epoch observation values (Epoch: 2026-06-22T16:07:54.448Z)
Latitude
0.00005°
Longitude
102.69451°
Altitude
465.055 km
Speed
7.634 km/s
True Right ascension
17h 02m 06s
True Declination
0° 00' 00"
Sunlit
Object was in full shadow at epoch
Visualization orbit readout
Latitude
Unknown
Longitude
Unknown
Altitude
Unknown
Speed
Unknown
Apparent Right ascension
Unknown
Apparent Declination
Unknown
Sunlit
N/A
Visualization observer readout
Local Sidereal Time
12:20:44
Azimuth
Unknown
Elevation
Unknown
Doppler factor
Unknown
Orbital elements
Apogee altitude
460.853 km
Perigee altitude
457.693 km
Semi-major axis
6,837.41 km
Eccentricity
0.00023
Inclination
97.3821°
RAAN
255.5261°
Arg. of periapsis
284.1341°
True anomaly
75.99029°
Mean anomaly
75.9646°
Eccentric anomaly
75.97745°
Mean motion
3.83889 °/min
Orbital period
93.78 mins
BSTAR
0.00021249
Loading maneuver chart data...
Computing Atmospheric mass density...
Loading historical data...
Loading historical data...
Loading historical data...
Loading historical data...
Loading historical data...
Loading historical data...
Loading historical data...

Documentation

Showing up to 5 results
|